Time,TemperatureF,DewpointF,PressureIn,WindDirection,WindDirectionDegrees,WindSpeedMPH,WindSpeedGustMPH,Humidity,HourlyPrecipIn,Conditions,Clouds,dailyrainin,SoftwareType,DateUTC
2013-02-05 00:00:00,69.4,60.8,30.08,WSW,247,1.0,3.0,74,0.00,CLR,,0.00,WeatherDisplay:10.37,2013-02-04 13:00:00,
2013-02-05 00:05:00,69.2,60.6,30.08,SW,233,1.0,3.0,74,0.00,CLR,,0.00,WeatherDisplay:10.37,2013-02-04 13:05:00,
2013-02-05 00:10:00,69.1,60.4,30.07,WSW,245,1.0,2.0,74,0.00,CLR,,0.00,WeatherDisplay:10.37,2013-02-04 13:10:00,
2013-02-05 00:15:00,69.1,60.4,30.08,WSW,248,1.0,6.0,74,0.00,CLR,,0.00,WeatherDisplay:10.37,2013-02-04 13:15:00,
2013-02-05 00:20:00,69.1,60.4,30.08,WSW,241,1.0,3.0,74,0.00,CLR,,0.00,WeatherDisplay:10.37,2013-02-04 13:20:00,
2013-02-05 00:25:00,68.9,60.3,30.08,WSW,245,0.0,4.0,74,0.00,CLR,,0.00,WeatherDisplay:10.37,2013-02-04 13:25:00,
2013-02-05 00:30:00,68.9,60.3,30.07,WSW,245,0.0,2.0,74,0.00,CLR,,0.00,WeatherDisplay:10.37,2013-02-04 13:30:00,
2013-02-05 00:35:00,68.9,60.3,30.07,WSW,243,0.0,4.0,74,0.00,CLR,,0.00,WeatherDisplay:10.37,2013-02-04 13:35:00,
2013-02-05 00:40:00,68.9,60.3,30.07,WSW,245,0.0,4.0,74,0.00,CLR,,0.00,WeatherDisplay:10.37,2013-02-04 13:40:00,
2013-02-05 00:45:00,68.7,60.1,30.07,WSW,246,0.0,3.0,74,0.00,CLR,,0.00,WeatherDisplay:10.37,2013-02-04 13:45:00,
2013-02-05 00:50:00,68.7,60.1,30.07,WSW,237,2.0,4.0,74,0.00,CLR,,0.00,WeatherDisplay:10.37,2013-02-04 13:50:00,
2013-02-05 00:55:00,68.7,60.1,30.07,SW,230,1.0,2.0,74,0.00,CLR,,0.00,WeatherDisplay:10.37,2013-02-04 13:55:00,
2013-02-05 01:00:00,68.7,60.1,30.07,SW,222,1.0,6.0,74,0.00,CLR,,0.00,WeatherDisplay:10.37,2013-02-04 14:00:00,
2013-02-05 01:05:00,68.5,60.3,30.07,SW,224,2.0,5.0,75,0.00,CLR,,0.00,WeatherDisplay:10.37,2013-02-04 14:05:00,
2013-02-05 01:10:00,68.5,60.3,30.07,SW,232,0.0,2.0,75,0.00,CLR,,0.00,WeatherDisplay:10.37,2013-02-04 14:10:00,
2013-02-05 01:15:00,68.5,60.3,30.06,SW,233,1.0,3.0,75,0.00,CLR,,0.00,WeatherDisplay:10.37,2013-02-04 14:15:00,
2013-02-05 01:20:00,68.5,60.3,30.06,SW,234,1.0,5.0,75,0.00,CLR,,0.00,WeatherDisplay:10.37,2013-02-04 14:20:00,
2013-02-05 01:25:00,68.4,60.1,30.06,WSW,238,0.0,2.0,75,0.00,CLR,,0.00,WeatherDisplay:10.37,2013-02-04 14:25:00,
2013-02-05 01:30:00,68.4,60.1,30.06,WSW,240,0.0,2.0,75,0.00,CLR,,0.00,WeatherDisplay:10.37,2013-02-04 14:30:00,
2013-02-05 01:35:00,68.2,60.0,30.06,SW,231,1.0,5.0,75,0.00,CLR,,0.00,WeatherDisplay:10.37,2013-02-04 14:35:00,
2013-02-05 01:40:00,68.2,60.0,30.06,SW,234,1.0,5.0,75,0.00,CLR,,0.00,WeatherDisplay:10.37,2013-02-04 14:40:00,
2013-02-05 01:45:00,68.2,60.0,30.06,WSW,243,1.0,7.0,75,0.00,CLR,,0.00,WeatherDisplay:10.37,2013-02-04 14:45:00,
2013-02-05 01:50:00,68.2,60.0,30.05,SW,230,3.0,7.0,75,0.00,CLR,,0.00,WeatherDisplay:10.37,2013-02-04 14:50:00,
2013-02-05 01:55:00,68.2,60.0,30.06,SW,224,2.0,6.0,75,0.00,CLR,,0.00,WeatherDisplay:10.37,2013-02-04 14:55:00,
2013-02-05 02:00:00,68.1,59.9,30.05,SW,226,2.0,6.0,75,0.00,CLR,,0.00,WeatherDisplay:10.37,2013-02-04 15:00:00,
2013-02-05 02:05:00,67.9,59.7,30.05,SW,230,0.0,1.0,75,0.00,CLR,,0.00,WeatherDisplay:10.37,2013-02-04 15:05:00,
2013-02-05 02:10:00,67.8,59.6,30.05,WSW,237,2.0,5.0,75,0.00,CLR,,0.00,WeatherDisplay:10.37,2013-02-04 15:10:00,
2013-02-05 02:15:00,67.8,59.6,30.05,WSW,237,3.0,5.0,75,0.00,CLR,,0.00,WeatherDisplay:10.37,2013-02-04 15:15:00,
2013-02-05 02:20:00,67.8,59.6,30.05,SW,227,1.0,5.0,75,0.00,CLR,,0.00,WeatherDisplay:10.37,2013-02-04 15:20:00,
2013-02-05 02:25:00,67.8,59.6,30.05,SW,222,2.0,6.0,75,0.00,CLR,,0.00,WeatherDisplay:10.37,2013-02-04 15:25:00,
2013-02-05 02:30:00,67.8,59.6,30.05,SW,226,5.0,7.0,75,0.00,CLR,,0.00,WeatherDisplay:10.37,2013-02-04 15:30:00,
2013-02-05 02:35:00,67.8,59.6,30.05,SW,224,1.0,4.0,75,0.00,CLR,,0.00,WeatherDisplay:10.37,2013-02-04 15:35:00,
2013-02-05 02:40:00,67.6,59.4,30.04,SW,227,2.0,7.0,75,0.00,CLR,,0.00,WeatherDisplay:10.37,2013-02-04 15:40:00,
2013-02-05 02:45:00,67.6,59.8,30.05,SW,219,0.0,5.0,76,0.00,CLR,,0.00,WeatherDisplay:10.37,2013-02-04 15:45:00,
2013-02-05 02:50:00,67.6,59.8,30.05,SW,223,0.0,3.0,76,0.00,CLR,,0.00,WeatherDisplay:10.37,2013-02-04 15:50:00,
2013-02-05 02:55:00,67.6,59.8,30.05,SW,226,1.0,5.0,76,0.00,CLR,,0.00,WeatherDisplay:10.37,2013-02-04 15:55:00,
2013-02-05 03:00:00,67.5,59.6,30.05,SW,229,2.0,6.0,76,0.00,CLR,,0.00,WeatherDisplay:10.37,2013-02-04 16:00:00,
2013-02-05 03:05:00,67.5,59.6,30.04,SW,226,1.0,4.0,76,0.00,CLR,,0.00,WeatherDisplay:10.37,2013-02-04 16:05:00,
2013-02-05 03:10:00,67.3,59.1,30.04,SW,218,1.0,4.0,75,0.00,CLR,,0.00,WeatherDisplay:10.37,2013-02-04 16:10:00,
2013-02-05 03:15:00,67.3,59.5,30.04,SW,222,2.0,4.0,76,0.00,CLR,,0.00,WeatherDisplay:10.37,2013-02-04 16:15:00,
2013-02-05 03:20:00,67.3,59.5,30.04,SW,222,1.0,5.0,76,0.00,CLR,,0.00,WeatherDisplay:10.37,2013-02-04 16:20:00,
2013-02-05 03:25:00,67.3,59.5,30.04,SW,219,2.0,5.0,76,0.00,CLR,,0.00,WeatherDisplay:10.37,2013-02-04 16:25:00,
2013-02-05 03:30:00,67.3,59.5,30.04,SW,224,3.0,7.0,76,0.00,CLR,,0.00,WeatherDisplay:10.37,2013-02-04 16:30:00,
2013-02-05 03:35:00,67.3,59.5,30.04,SW,216,5.0,7.0,76,0.00,CLR,,0.00,WeatherDisplay:10.37,2013-02-04 16:35:00,
2013-02-05 03:40:00,67.1,59.3,30.03,SW,216,5.0,8.0,76,0.00,CLR,,0.00,WeatherDisplay:10.37,2013-02-04 16:40:00,
2013-02-05 03:45:00,67.1,59.3,30.03,SW,223,2.0,8.0,76,0.00,CLR,,0.00,WeatherDisplay:10.37,2013-02-04 16:45:00,
2013-02-05 03:50:00,67.1,59.3,30.03,WSW,240,5.0,5.0,76,0.00,CLR,,0.00,WeatherDisplay:10.37,2013-02-04 16:50:00,
2013-02-05 03:55:00,67.0,59.2,30.03,SW,229,3.0,7.0,76,0.00,CLR,,0.00,WeatherDisplay:10.37,2013-02-04 16:55:00,
2013-02-05 04:00:00,67.0,59.2,30.03,SW,219,2.0,6.0,76,0.00,CLR,,0.00,WeatherDisplay:10.37,2013-02-04 17:00:00,
2013-02-05 04:05:00,66.9,59.1,30.03,SW,220,2.0,4.0,76,0.00,CLR,,0.00,WeatherDisplay:10.37,2013-02-04 17:05:00,
2013-02-05 04:10:00,66.9,59.1,30.03,SSW,211,2.0,4.0,76,0.00,CLR,,0.00,WeatherDisplay:10.37,2013-02-04 17:10:00,
2013-02-05 04:15:00,66.9,59.1,30.03,SSW,212,0.0,5.0,76,0.00,CLR,,0.00,WeatherDisplay:10.37,2013-02-04 17:15:00,
2013-02-05 04:20:00,66.8,59.0,30.03,SW,217,0.0,3.0,76,0.00,CLR,,0.00,WeatherDisplay:10.37,2013-02-04 17:20:00,
2013-02-05 04:25:00,66.7,59.3,30.03,SW,225,2.0,5.0,77,0.00,CLR,,0.00,WeatherDisplay:10.37,2013-02-04 17:25:00,
2013-02-05 04:30:00,66.7,59.3,30.03,SW,229,0.0,5.0,77,0.00,CLR,,0.00,WeatherDisplay:10.37,2013-02-04 17:30:00,
2013-02-05 04:35:00,66.7,59.3,30.03,SW,226,1.0,4.0,77,0.00,CLR,,0.00,WeatherDisplay:10.37,2013-02-04 17:35:00,
2013-02-05 04:40:00,66.7,59.3,30.03,SW,227,1.0,4.0,77,0.00,CLR,,0.00,WeatherDisplay:10.37,2013-02-04 17:40:00,
2013-02-05 04:45:00,66.7,59.3,30.03,SW,235,1.0,5.0,77,0.00,CLR,,0.00,WeatherDisplay:10.37,2013-02-04 17:45:00,
2013-02-05 04:50:00,66.7,59.3,30.03,SW,235,1.0,3.0,77,0.00,CLR,,0.00,WeatherDisplay:10.37,2013-02-04 17:50:00,
2013-02-05 04:55:00,66.7,59.3,30.03,SW,223,1.0,5.0,77,0.00,CLR,,0.00,WeatherDisplay:10.37,2013-02-04 17:55:00,
2013-02-05 05:00:00,66.7,59.3,30.03,SW,215,3.0,7.0,77,0.00,CLR,,0.00,WeatherDisplay:10.37,2013-02-04 18:00:00,
2013-02-05 05:05:00,66.7,59.3,30.03,SSW,208,1.0,5.0,77,0.00,CLR,,0.00,WeatherDisplay:10.37,2013-02-04 18:05:00,
2013-02-05 05:10:00,66.7,59.3,30.03,SW,216,3.0,5.0,77,0.00,CLR,,0.00,WeatherDisplay:10.37,2013-02-04 18:10:00,
2013-02-05 05:15:00,66.6,59.1,30.04,SW,221,0.0,2.0,77,0.00,CLR,,0.00,WeatherDisplay:10.37,2013-02-04 18:15:00,
2013-02-05 05:20:00,66.6,59.5,30.03,SW,227,2.0,6.0,78,0.00,CLR,,0.00,WeatherDisplay:10.37,2013-02-04 18:20:00,
2013-02-05 05:25:00,66.6,59.5,30.03,WSW,243,2.0,8.0,78,0.00,CLR,,0.00,WeatherDisplay:10.37,2013-02-04 18:25:00,
2013-02-05 05:30:00,66.6,59.5,30.03,WSW,237,1.0,5.0,78,0.00,CLR,,0.00,WeatherDisplay:10.37,2013-02-04 18:30:00,
2013-02-05 05:35:00,66.6,59.5,30.03,SW,217,2.0,5.0,78,0.00,CLR,,0.00,WeatherDisplay:10.37,2013-02-04 18:35:00,
2013-02-05 05:40:00,66.6,59.5,30.04,SSW,212,3.0,8.0,78,0.00,CLR,,0.00,WeatherDisplay:10.37,2013-02-04 18:40:00,
2013-02-05 05:45:00,66.6,59.5,30.04,SW,214,1.0,7.0,78,0.00,CLR,,0.00,WeatherDisplay:10.37,2013-02-04 18:45:00,
2013-02-05 05:50:00,66.6,59.5,30.04,SW,214,6.0,7.0,78,0.00,CLR,,0.00,WeatherDisplay:10.37,2013-02-04 18:50:00,
2013-02-05 05:55:00,66.6,59.5,30.04,SW,217,2.0,6.0,78,0.00,CLR,,0.00,WeatherDisplay:10.37,2013-02-04 18:55:00,
2013-02-05 06:00:00,66.6,59.5,30.04,SW,222,3.0,7.0,78,0.00,CLR,,0.00,WeatherDisplay:10.37,2013-02-04 19:00:00,
2013-02-05 06:05:00,66.6,59.5,30.05,SW,217,3.0,6.0,78,0.00,CLR,,0.00,WeatherDisplay:10.37,2013-02-04 19:05:00,
2013-02-05 06:10:00,66.6,59.5,30.05,SW,217,2.0,7.0,78,0.00,CLR,,0.00,WeatherDisplay:10.37,2013-02-04 19:10:00,
2013-02-05 06:15:00,66.6,59.5,30.05,SW,223,6.0,8.0,78,0.00,CLR,,0.00,WeatherDisplay:10.37,2013-02-04 19:15:00,
2013-02-05 06:20:00,66.7,59.7,30.05,SW,225,5.0,8.0,78,0.00,CLR,,0.00,WeatherDisplay:10.37,2013-02-04 19:20:00,
2013-02-05 06:25:00,66.7,59.7,30.05,SW,221,3.0,6.0,78,0.00,CLR,,0.00,WeatherDisplay:10.37,2013-02-04 19:25:00,
2013-02-05 06:30:00,66.7,59.7,30.05,SW,219,2.0,5.0,78,0.00,CLR,,0.00,WeatherDisplay:10.37,2013-02-04 19:30:00,
2013-02-05 06:35:00,66.7,59.7,30.05,SW,220,5.0,6.0,78,0.00,CLR,,0.00,WeatherDisplay:10.37,2013-02-04 19:35:00,
2013-02-05 06:40:00,66.7,59.7,30.05,SSW,213,2.0,6.0,78,0.00,CLR,,0.00,WeatherDisplay:10.37,2013-02-04 19:40:00,
2013-02-05 06:45:00,66.7,59.7,30.05,SW,217,3.0,5.0,78,0.00,CLR,,0.00,WeatherDisplay:10.37,2013-02-04 19:45:00,
2013-02-05 06:50:00,66.7,59.7,30.06,SSW,208,3.0,6.0,78,0.00,CLR,,0.00,WeatherDisplay:10.37,2013-02-04 19:50:00,
2013-02-05 06:55:00,66.7,59.7,30.06,SSW,210,2.0,6.0,78,0.00,CLR,,0.00,WeatherDisplay:10.37,2013-02-04 19:55:00,
2013-02-05 07:00:00,66.7,60.0,30.06,SSW,209,2.0,7.0,79,0.00,CLR,,0.00,WeatherDisplay:10.37,2013-02-04 20:00:00,
2013-02-05 07:05:00,66.7,60.0,30.06,SSW,207,1.0,5.0,79,0.00,CLR,,0.00,WeatherDisplay:10.37,2013-02-04 20:05:00,
2013-02-05 07:10:00,66.9,60.2,30.06,South,190,0.0,3.0,79,0.00,CLR,,0.00,WeatherDisplay:10.37,2013-02-04 20:10:00,
2013-02-05 07:15:00,66.9,60.2,30.06,South,187,0.0,3.0,79,0.00,CLR,,0.00,WeatherDisplay:10.37,2013-02-04 20:15:00,
2013-02-05 07:20:00,66.9,60.2,30.07,SW,221,2.0,3.0,79,0.00,CLR,,0.00,WeatherDisplay:10.37,2013-02-04 20:20:00,
2013-02-05 07:25:00,67.0,60.3,30.07,SW,219,3.0,5.0,79,0.00,CLR,,0.00,WeatherDisplay:10.37,2013-02-04 20:25:00,
2013-02-05 07:30:00,67.0,60.6,30.07,SW,214,6.0,9.0,80,0.00,CLR,,0.00,WeatherDisplay:10.37,2013-02-04 20:30:00,
2013-02-05 07:35:00,67.1,60.7,30.07,SSW,210,6.0,7.0,80,0.00,CLR,,0.00,WeatherDisplay:10.37,2013-02-04 20:35:00,
2013-02-05 07:40:00,67.1,60.7,30.07,SSW,208,3.0,8.0,80,0.00,CLR,,0.00,WeatherDisplay:10.37,2013-02-04 20:40:00,
2013-02-05 07:45:00,67.2,60.8,30.07,SSW,213,6.0,8.0,80,0.00,CLR,,0.00,WeatherDisplay:10.37,2013-02-04 20:45:00,
2013-02-05 07:50:00,67.3,60.9,30.07,SW,215,6.0,8.0,80,0.00,CLR,,0.00,WeatherDisplay:10.37,2013-02-04 20:50:00,
2013-02-05 07:55:00,67.4,61.0,30.07,SSW,212,6.0,10.0,80,0.00,CLR,,0.00,WeatherDisplay:10.37,2013-02-04 20:55:00,
2013-02-05 08:00:00,67.7,61.3,30.07,SW,215,5.0,11.0,80,0.00,CLR,,0.00,WeatherDisplay:10.37,2013-02-04 21:00:00,
2013-02-05 08:05:00,67.8,61.1,30.07,SW,215,6.0,7.0,79,0.00,CLR,,0.00,WeatherDisplay:10.37,2013-02-04 21:05:00,
2013-02-05 08:10:00,68.2,61.4,30.07,SSW,209,5.0,12.0,79,0.00,CLR,,0.00,WeatherDisplay:10.37,2013-02-04 21:10:00,
2013-02-05 08:15:00,68.4,61.6,30.08,SW,216,3.0,6.0,79,0.00,CLR,,0.00,WeatherDisplay:10.37,2013-02-04 21:15:00,
2013-02-05 08:20:00,68.7,61.9,30.08,SW,216,5.0,9.0,79,0.00,CLR,,0.00,WeatherDisplay:10.37,2013-02-04 21:20:00,
2013-02-05 08:25:00,69.0,62.2,30.08,SW,215,6.0,9.0,79,0.00,CLR,,0.00,WeatherDisplay:10.37,2013-02-04 21:25:00,
2013-02-05 08:30:00,69.4,62.6,30.08,SW,225,5.0,8.0,79,0.00,CLR,,0.00,WeatherDisplay:10.37,2013-02-04 21:30:00,
2013-02-05 08:35:00,70.0,62.8,30.08,SW,215,5.0,8.0,78,0.00,CLR,,0.00,WeatherDisplay:10.37,2013-02-04 21:35:00,
2013-02-05 08:40:00,70.7,63.5,30.08,SW,214,5.0,8.0,78,0.00,CLR,,0.00,WeatherDisplay:10.37,2013-02-04 21:40:00,
2013-02-05 08:45:00,71.2,63.7,30.08,SW,219,2.0,6.0,77,0.00,CLR,,0.00,WeatherDisplay:10.37,2013-02-04 21:45:00,
2013-02-05 08:50:00,71.6,63.6,30.08,SW,215,2.0,5.0,76,0.00,CLR,,0.00,WeatherDisplay:10.37,2013-02-04 21:50:00,
2013-02-05 08:55:00,71.9,63.9,30.08,SSW,212,3.0,6.0,76,0.00,CLR,,0.00,WeatherDisplay:10.37,2013-02-04 21:55:00,
2013-02-05 09:00:00,72.1,63.8,30.08,SSW,212,3.0,6.0,75,0.00,CLR,,0.00,WeatherDisplay:10.37,2013-02-04 22:00:00,
2013-02-05 09:05:00,72.3,63.9,30.08,SW,221,3.0,8.0,75,0.00,CLR,,0.00,WeatherDisplay:10.37,2013-02-04 22:05:00,
2013-02-05 09:10:00,72.6,64.2,30.08,SW,223,5.0,7.0,75,0.00,CLR,,0.00,WeatherDisplay:10.37,2013-02-04 22:10:00,
2013-02-05 09:15:00,73.2,64.4,30.08,SSW,213,2.0,6.0,74,0.00,CLR,,0.00,WeatherDisplay:10.37,2013-02-04 22:15:00,
2013-02-05 09:20:00,73.6,64.8,30.08,SSW,210,3.0,6.0,74,0.00,CLR,,0.00,WeatherDisplay:10.37,2013-02-04 22:20:00,
2013-02-05 09:25:00,74.2,65.4,30.08,SW,214,1.0,6.0,74,0.00,CLR,,0.00,WeatherDisplay:10.37,2013-02-04 22:25:00,
2013-02-05 09:30:00,75.0,65.4,30.08,SW,215,1.0,5.0,72,0.00,CLR,,0.00,WeatherDisplay:10.37,2013-02-04 22:30:00,
2013-02-05 09:35:00,75.6,65.5,30.08,SW,215,0.0,5.0,71,0.00,CLR,,0.00,WeatherDisplay:10.37,2013-02-04 22:35:00,
2013-02-05 09:40:00,75.9,65.4,30.09,SW,219,0.0,5.0,70,0.00,CLR,,0.00,WeatherDisplay:10.37,2013-02-04 22:40:00,
2013-02-05 09:45:00,75.7,64.8,30.08,SW,217,2.0,4.0,69,0.00,CLR,,0.00,WeatherDisplay:10.37,2013-02-04 22:45:00,
2013-02-05 09:50:00,75.9,65.0,30.08,SSW,208,0.0,4.0,69,0.00,CLR,,0.00,WeatherDisplay:10.37,2013-02-04 22:50:00,
2013-02-05 09:55:00,75.7,64.4,30.08,SSW,192,0.0,4.0,68,0.00,CLR,,0.00,WeatherDisplay:10.37,2013-02-04 22:55:00,
2013-02-05 10:00:00,75.4,64.5,30.08,SSW,212,3.0,7.0,69,0.00,CLR,,0.00,WeatherDisplay:10.37,2013-02-04 23:00:00,
2013-02-05 10:05:00,75.7,64.8,30.08,SW,224,3.0,5.0,69,0.00,CLR,,0.00,WeatherDisplay:10.37,2013-02-04 23:05:00,
2013-02-05 10:10:00,76.3,65.0,30.08,WSW,253,2.0,6.0,68,0.00,CLR,,0.00,WeatherDisplay:10.37,2013-02-04 23:10:00,
2013-02-05 10:15:00,76.8,65.5,30.08,SW,233,1.0,4.0,68,0.00,CLR,,0.00,WeatherDisplay:10.37,2013-02-04 23:15:00,
2013-02-05 10:20:00,77.2,65.4,30.08,SSW,203,2.0,5.0,67,0.00,CLR,,0.00,WeatherDisplay:10.37,2013-02-04 23:20:00,
2013-02-05 10:25:00,77.2,65.4,30.08,SSW,210,0.0,5.0,67,0.00,CLR,,0.00,WeatherDisplay:10.37,2013-02-04 23:25:00,
2013-02-05 10:30:00,76.9,65.1,30.08,NW,309,0.0,3.0,67,0.00,CLR,,0.00,WeatherDisplay:10.37,2013-02-04 23:30:00,
2013-02-05 10:35:00,76.6,64.9,30.09,SSW,209,2.0,4.0,67,0.00,CLR,,0.00,WeatherDisplay:10.37,2013-02-04 23:35:00,
2013-02-05 10:40:00,76.4,64.6,30.09,SW,221,0.0,5.0,67,0.00,CLR,,0.00,WeatherDisplay:10.37,2013-02-04 23:40:00,
2013-02-05 10:45:00,76.3,64.5,30.09,SW,222,0.0,2.0,67,0.00,CLR,,0.00,WeatherDisplay:10.37,2013-02-04 23:45:00,
2013-02-05 10:50:00,76.3,64.5,30.09,SE,133,0.0,4.0,67,0.00,CLR,,0.00,WeatherDisplay:10.37,2013-02-04 23:50:00,
2013-02-05 10:55:00,76.3,64.1,30.09,SSE,158,0.0,2.0,66,0.00,CLR,,0.00,WeatherDisplay:10.37,2013-02-04 23:55:00,
2013-02-05 11:00:00,76.6,64.4,30.08,NNE,27,1.0,4.0,66,0.00,CLR,,0.00,WeatherDisplay:10.37,2013-02-05 00:00:00,
2013-02-05 11:05:00,77.1,64.5,30.09,ESE,109,1.0,8.0,65,0.00,CLR,,0.00,WeatherDisplay:10.37,2013-02-05 00:05:00,
2013-02-05 11:10:00,77.7,64.6,30.09,ENE,77,1.0,5.0,64,0.00,CLR,,0.00,WeatherDisplay:10.37,2013-02-05 00:10:00,
2013-02-05 11:15:00,78.1,64.5,30.09,South,172,2.0,7.0,63,0.00,CLR,,0.00,WeatherDisplay:10.37,2013-02-05 00:15:00,
2013-02-05 11:20:00,77.7,63.7,30.08,SSW,209,2.0,5.0,62,0.00,CLR,,0.00,WeatherDisplay:10.37,2013-02-05 00:20:00,
2013-02-05 11:25:00,77.4,63.4,30.08,NW,311,0.0,5.0,62,0.00,CLR,,0.00,WeatherDisplay:10.37,2013-02-05 00:25:00,
2013-02-05 11:30:00,77.9,64.3,30.08,SE,131,1.0,6.0,63,0.00,CLR,,0.00,WeatherDisplay:10.37,2013-02-05 00:30:00,
2013-02-05 11:35:00,78.5,64.4,30.08,SE,126,1.0,5.0,62,0.00,CLR,,0.00,WeatherDisplay:10.37,2013-02-05 00:35:00,
2013-02-05 11:40:00,79.2,64.1,30.08,NNE,32,3.0,5.0,60,0.00,CLR,,0.00,WeatherDisplay:10.37,2013-02-05 00:40:00,
2013-02-05 11:45:00,79.5,63.9,30.07,NNE,15,1.0,5.0,59,0.00,CLR,,0.00,WeatherDisplay:10.37,2013-02-05 00:45:00,
2013-02-05 11:50:00,80.2,64.6,30.08,NE,34,1.0,7.0,59,0.00,CLR,,0.00,WeatherDisplay:10.37,2013-02-05 00:50:00,
2013-02-05 11:55:00,80.6,64.4,30.07,East,87,1.0,6.0,58,0.00,CLR,,0.00,WeatherDisplay:10.37,2013-02-05 00:55:00,
2013-02-05 12:00:00,80.8,64.6,30.08,East,96,0.0,5.0,58,0.00,CLR,,0.00,WeatherDisplay:10.37,2013-02-05 01:00:00,
2013-02-05 12:05:00,80.6,64.0,30.07,WSW,252,1.0,4.0,57,0.00,CLR,,0.00,WeatherDisplay:10.37,2013-02-05 01:05:00,
2013-02-05 12:10:00,80.2,64.1,30.07,SSW,202,0.0,4.0,58,0.00,CLR,,0.00,WeatherDisplay:10.37,2013-02-05 01:10:00,
2013-02-05 12:15:00,79.7,64.1,30.07,ESE,106,0.0,6.0,59,0.00,CLR,,0.00,WeatherDisplay:10.37,2013-02-05 01:15:00,
2013-02-05 12:20:00,79.2,64.1,30.07,ESE,111,2.0,8.0,60,0.00,CLR,,0.00,WeatherDisplay:10.37,2013-02-05 01:20:00,
2013-02-05 12:25:00,79.2,64.6,30.07,SSE,147,1.0,5.0,61,0.00,CLR,,0.00,WeatherDisplay:10.37,2013-02-05 01:25:00,
2013-02-05 12:30:00,79.2,64.6,30.07,SW,218,1.0,5.0,61,0.00,CLR,,0.00,WeatherDisplay:10.37,2013-02-05 01:30:00,
2013-02-05 12:35:00,79.5,64.8,30.06,SW,223,0.0,2.0,61,0.00,CLR,,0.00,WeatherDisplay:10.37,2013-02-05 01:35:00,
2013-02-05 12:40:00,79.4,64.3,30.06,South,170,3.0,10.0,60,0.00,CLR,,0.00,WeatherDisplay:10.37,2013-02-05 01:40:00,
2013-02-05 12:45:00,80.2,65.6,30.06,SSE,168,2.0,7.0,61,0.00,CLR,,0.00,WeatherDisplay:10.37,2013-02-05 01:45:00,
2013-02-05 12:50:00,81.0,65.3,30.06,South,173,1.0,7.0,59,0.00,CLR,,0.00,WeatherDisplay:10.37,2013-02-05 01:50:00,
2013-02-05 12:55:00,81.5,65.3,30.06,South,181,3.0,8.0,58,0.00,CLR,,0.00,WeatherDisplay:10.37,2013-02-05 01:55:00,
2013-02-05 13:00:00,81.5,65.3,30.06,South,185,3.0,7.0,58,0.00,CLR,,0.00,WeatherDisplay:10.37,2013-02-05 02:00:00,
2013-02-05 13:05:00,81.1,64.9,30.06,South,187,1.0,10.0,58,0.00,CLR,,0.00,WeatherDisplay:10.37,2013-02-05 02:05:00,
2013-02-05 13:10:00,80.8,65.1,30.05,SSE,148,2.0,10.0,59,0.00,CLR,,0.00,WeatherDisplay:10.37,2013-02-05 02:10:00,
2013-02-05 13:15:00,81.0,65.3,30.05,South,190,5.0,15.0,59,0.00,CLR,,0.00,WeatherDisplay:10.37,2013-02-05 02:15:00,
2013-02-05 13:20:00,81.4,65.7,30.05,South,187,3.0,10.0,59,0.00,CLR,,0.00,WeatherDisplay:10.37,2013-02-05 02:20:00,
2013-02-05 13:25:00,81.9,66.2,30.05,SSW,192,1.0,6.0,59,0.00,CLR,,0.00,WeatherDisplay:10.37,2013-02-05 02:25:00,
2013-02-05 13:30:00,82.3,66.6,30.05,SE,131,2.0,6.0,59,0.00,CLR,,0.00,WeatherDisplay:10.37,2013-02-05 02:30:00,
2013-02-05 13:35:00,82.6,65.8,30.05,SE,131,5.0,9.0,57,0.00,CLR,,0.00,WeatherDisplay:10.37,2013-02-05 02:35:00,
2013-02-05 13:40:00,82.6,65.8,30.05,ESE,121,1.0,5.0,57,0.00,CLR,,0.00,WeatherDisplay:10.37,2013-02-05 02:40:00,
2013-02-05 13:45:00,82.2,65.5,30.05,NE,36,2.0,6.0,57,0.00,CLR,,0.00,WeatherDisplay:10.37,2013-02-05 02:45:00,
2013-02-05 13:50:00,82.0,65.3,30.04,ESE,103,2.0,5.0,57,0.00,CLR,,0.00,WeatherDisplay:10.37,2013-02-05 02:50:00,
2013-02-05 13:55:00,82.0,65.3,30.05,East,79,2.0,7.0,57,0.00,CLR,,0.00,WeatherDisplay:10.37,2013-02-05 02:55:00,
2013-02-05 14:00:00,82.2,65.5,30.04,NE,48,1.0,5.0,57,0.00,CLR,,0.00,WeatherDisplay:10.37,2013-02-05 03:00:00,
2013-02-05 14:10:00,82.0,65.3,30.04,East,99,1.0,9.0,57,0.00,CLR,,0.00,WeatherDisplay:10.37,2013-02-05 03:10:00,
2013-02-05 14:15:00,82.2,65.5,30.04,East,95,3.0,13.0,57,0.00,CLR,,0.00,WeatherDisplay:10.37,2013-02-05 03:15:00,
2013-02-05 14:20:00,82.5,65.2,30.03,ENE,72,2.0,13.0,56,0.00,CLR,,0.00,WeatherDisplay:10.37,2013-02-05 03:20:00,
2013-02-05 14:25:00,82.7,65.4,30.04,South,177,2.0,6.0,56,0.00,CLR,,0.00,WeatherDisplay:10.37,2013-02-05 03:25:00,
2013-02-05 14:30:00,83.1,65.8,30.03,South,175,1.0,8.0,56,0.00,CLR,,0.00,WeatherDisplay:10.37,2013-02-05 03:30:00,
2013-02-05 14:35:00,83.3,65.4,30.03,North,9,3.0,10.0,55,0.00,CLR,,0.00,WeatherDisplay:10.37,2013-02-05 03:35:00,
2013-02-05 14:40:00,83.2,65.3,30.03,ENE,57,2.0,7.0,55,0.00,CLR,,0.00,WeatherDisplay:10.37,2013-02-05 03:40:00,
2013-02-05 14:45:00,82.9,65.1,30.03,North,3,2.0,7.0,55,0.00,CLR,,0.00,WeatherDisplay:10.37,2013-02-05 03:45:00,
2013-02-05 14:50:00,82.6,65.3,30.03,South,179,5.0,8.0,56,0.00,CLR,,0.00,WeatherDisplay:10.37,2013-02-05 03:50:00,
2013-02-05 14:55:00,82.2,64.9,30.03,South,179,2.0,6.0,56,0.00,CLR,,0.00,WeatherDisplay:10.37,2013-02-05 03:55:00,
2013-02-05 15:00:00,81.9,64.2,30.03,SSE,149,2.0,6.0,55,0.00,CLR,,0.00,WeatherDisplay:10.37,2013-02-05 04:00:00,
2013-02-05 15:05:00,81.7,63.9,30.03,ESE,107,2.0,10.0,55,0.00,CLR,,0.00,WeatherDisplay:10.37,2013-02-05 04:05:00,
2013-02-05 15:10:00,81.7,63.9,30.03,ENE,57,2.0,6.0,55,0.00,CLR,,0.00,WeatherDisplay:10.37,2013-02-05 04:10:00,
2013-02-05 15:15:00,81.3,63.6,30.03,South,170,3.0,6.0,55,0.00,CLR,,0.00,WeatherDisplay:10.37,2013-02-05 04:15:00,
2013-02-05 15:20:00,81.0,63.3,30.03,East,84,1.0,4.0,55,0.00,CLR,,0.00,WeatherDisplay:10.37,2013-02-05 04:20:00,
2013-02-05 15:25:00,80.6,63.0,30.03,NE,40,1.0,6.0,55,0.00,CLR,,0.00,WeatherDisplay:10.37,2013-02-05 04:25:00,
2013-02-05 15:30:00,80.7,63.5,30.02,NE,34,2.0,6.0,56,0.00,CLR,,0.00,WeatherDisplay:10.37,2013-02-05 04:30:00,
2013-02-05 15:35:00,80.9,63.7,30.03,NE,46,3.0,6.0,56,0.00,CLR,,0.00,WeatherDisplay:10.37,2013-02-05 04:35:00,
2013-02-05 15:40:00,80.9,63.2,30.03,NE,49,2.0,7.0,55,0.00,CLR,,0.00,WeatherDisplay:10.37,2013-02-05 04:40:00,
2013-02-05 15:45:00,80.8,63.6,30.03,ENE,61,1.0,4.0,56,0.00,CLR,,0.00,WeatherDisplay:10.37,2013-02-05 04:45:00,
2013-02-05 15:50:00,81.1,64.0,30.02,NE,41,1.0,7.0,56,0.00,CLR,,0.00,WeatherDisplay:10.37,2013-02-05 04:50:00,
2013-02-05 15:55:00,81.3,63.6,30.02,East,93,3.0,10.0,55,0.00,CLR,,0.00,WeatherDisplay:10.37,2013-02-05 04:55:00,
2013-02-05 16:00:00,81.3,63.6,30.02,ESE,109,2.0,10.0,55,0.00,CLR,,0.00,WeatherDisplay:10.37,2013-02-05 05:00:00,
2013-02-05 16:05:00,81.3,63.6,30.01,East,80,1.0,9.0,55,0.00,CLR,,0.00,WeatherDisplay:10.37,2013-02-05 05:05:00,
2013-02-05 16:10:00,81.5,64.3,30.02,North,4,2.0,8.0,56,0.00,CLR,,0.00,WeatherDisplay:10.37,2013-02-05 05:10:00,
2013-02-05 16:15:00,81.3,64.1,30.02,NE,51,2.0,7.0,56,0.00,CLR,,0.00,WeatherDisplay:10.37,2013-02-05 05:15:00,
2013-02-05 16:20:00,81.3,64.6,30.02,WSW,250,2.0,6.0,57,0.00,CLR,,0.00,WeatherDisplay:10.37,2013-02-05 05:20:00,
2013-02-05 16:25:00,81.3,64.6,30.02,ENE,65,2.0,6.0,57,0.00,CLR,,0.00,WeatherDisplay:10.37,2013-02-05 05:25:00,
2013-02-05 16:30:00,81.0,64.3,30.01,East,85,2.0,5.0,57,0.00,CLR,,0.00,WeatherDisplay:10.37,2013-02-05 05:30:00,
2013-02-05 16:35:00,80.4,64.3,30.02,East,82,3.0,8.0,58,0.00,CLR,,0.00,WeatherDisplay:10.37,2013-02-05 05:35:00,
2013-02-05 16:40:00,80.1,64.0,30.02,ESE,104,1.0,6.0,58,0.00,CLR,,0.00,WeatherDisplay:10.37,2013-02-05 05:40:00,
2013-02-05 16:50:00,79.7,63.6,30.02,East,89,1.0,6.0,58,0.00,CLR,,0.00,WeatherDisplay:10.37,2013-02-05 05:50:00,
2013-02-05 16:55:00,79.7,63.6,30.02,NE,36,3.0,7.0,58,0.00,CLR,,0.00,WeatherDisplay:10.37,2013-02-05 05:55:00,
2013-02-05 17:00:00,79.7,64.1,30.02,SE,130,2.0,6.0,59,0.00,CLR,,0.00,WeatherDisplay:10.37,2013-02-05 06:00:00,
2013-02-05 17:05:00,79.9,64.3,30.02,SSE,165,2.0,4.0,59,0.00,CLR,,0.00,WeatherDisplay:10.37,2013-02-05 06:05:00,
2013-02-05 17:10:00,79.8,63.2,30.02,ESE,112,3.0,6.0,57,0.00,CLR,,0.00,WeatherDisplay:10.37,2013-02-05 06:10:00,
2013-02-05 17:15:00,79.6,63.1,30.02,WSW,253,3.0,10.0,57,0.00,CLR,,0.00,WeatherDisplay:10.37,2013-02-05 06:15:00,
2013-02-05 17:20:00,79.5,63.0,30.02,WSW,250,1.0,6.0,57,0.00,CLR,,0.00,WeatherDisplay:10.37,2013-02-05 06:20:00,
2013-02-05 17:25:00,79.7,63.6,30.02,East,80,1.0,7.0,58,0.00,CLR,,0.00,WeatherDisplay:10.37,2013-02-05 06:25:00,
2013-02-05 17:30:00,79.9,63.8,30.02,East,95,1.0,5.0,58,0.00,CLR,,0.00,WeatherDisplay:10.37,2013-02-05 06:30:00,
2013-02-05 17:35:00,79.8,63.7,30.02,ESE,112,3.0,9.0,58,0.00,CLR,,0.00,WeatherDisplay:10.37,2013-02-05 06:35:00,
2013-02-05 17:40:00,79.5,63.4,30.02,SE,125,1.0,7.0,58,0.00,CLR,,0.00,WeatherDisplay:10.37,2013-02-05 06:40:00,
2013-02-05 17:45:00,79.2,63.2,30.02,NE,52,2.0,7.0,58,0.00,CLR,,0.00,WeatherDisplay:10.37,2013-02-05 06:45:00,
2013-02-05 17:50:00,78.7,62.7,30.02,NE,47,1.0,6.0,58,0.00,CLR,,0.00,WeatherDisplay:10.37,2013-02-05 06:50:00,
2013-02-05 17:55:00,78.5,63.0,30.02,ESE,111,1.0,5.0,59,0.00,CLR,,0.00,WeatherDisplay:10.37,2013-02-05 06:55:00,
2013-02-05 18:05:00,77.9,62.4,30.02,NNE,33,1.0,7.0,59,0.00,CLR,,0.00,WeatherDisplay:10.37,2013-02-05 07:05:00,
2013-02-05 18:10:00,77.5,62.1,30.02,ESE,102,0.0,7.0,59,0.00,CLR,,0.00,WeatherDisplay:10.37,2013-02-05 07:10:00,
2013-02-05 18:15:00,77.5,62.6,30.02,East,89,1.0,4.0,60,0.00,CLR,,0.00,WeatherDisplay:10.37,2013-02-05 07:15:00,
2013-02-05 18:20:00,77.4,62.4,30.02,East,82,0.0,4.0,60,0.00,CLR,,0.00,WeatherDisplay:10.37,2013-02-05 07:20:00,
2013-02-05 18:25:00,77.4,62.4,30.02,East,95,1.0,5.0,60,0.00,CLR,,0.00,WeatherDisplay:10.37,2013-02-05 07:25:00,
2013-02-05 18:30:00,77.2,62.2,30.02,SE,146,1.0,6.0,60,0.00,CLR,,0.00,WeatherDisplay:10.37,2013-02-05 07:30:00,
2013-02-05 18:35:00,76.8,61.9,30.02,SSE,148,0.0,4.0,60,0.00,CLR,,0.00,WeatherDisplay:10.37,2013-02-05 07:35:00,
2013-02-05 18:40:00,76.8,61.9,30.03,East,89,0.0,6.0,60,0.00,CLR,,0.00,WeatherDisplay:10.37,2013-02-05 07:40:00,
2013-02-05 18:45:00,76.8,62.3,30.02,North,352,0.0,3.0,61,0.00,CLR,,0.00,WeatherDisplay:10.37,2013-02-05 07:45:00,
2013-02-05 18:50:00,76.8,61.9,30.02,NNE,30,0.0,5.0,60,0.00,CLR,,0.00,WeatherDisplay:10.37,2013-02-05 07:50:00,
2013-02-05 18:55:00,76.6,62.1,30.02,NE,44,0.0,4.0,61,0.00,CLR,,0.00,WeatherDisplay:10.37,2013-02-05 07:55:00,
2013-02-05 19:00:00,76.3,61.8,30.02,NE,45,0.0,3.0,61,0.00,CLR,,0.00,WeatherDisplay:10.37,2013-02-05 08:00:00,
2013-02-05 19:05:00,76.1,61.7,30.03,NNE,25,0.0,0.0,61,0.00,CLR,,0.00,WeatherDisplay:10.37,2013-02-05 08:05:00,
2013-02-05 19:10:00,75.9,61.5,30.03,NNE,13,1.0,5.0,61,0.00,CLR,,0.00,WeatherDisplay:10.37,2013-02-05 08:10:00,
2013-02-05 19:15:00,75.7,61.8,30.03,NNE,30,0.0,5.0,62,0.00,CLR,,0.00,WeatherDisplay:10.37,2013-02-05 08:15:00,
2013-02-05 19:20:00,75.4,61.5,30.03,East,86,1.0,4.0,62,0.00,CLR,,0.00,WeatherDisplay:10.37,2013-02-05 08:20:00,
2013-02-05 19:25:00,75.0,61.6,30.03,East,82,2.0,4.0,63,0.00,CLR,,0.00,WeatherDisplay:10.37,2013-02-05 08:25:00,
2013-02-05 19:30:00,74.7,61.3,30.03,East,81,0.0,4.0,63,0.00,CLR,,0.00,WeatherDisplay:10.37,2013-02-05 08:30:00,
2013-02-05 19:35:00,74.5,61.1,30.03,ENE,61,2.0,5.0,63,0.00,CLR,,0.00,WeatherDisplay:10.37,2013-02-05 08:35:00,
2013-02-05 19:40:00,74.3,61.3,30.03,ENE,75,1.0,4.0,64,0.00,CLR,,0.00,WeatherDisplay:10.37,2013-02-05 08:40:00,
2013-02-05 19:45:00,74.1,61.6,30.03,East,92,1.0,3.0,65,0.00,CLR,,0.00,WeatherDisplay:10.37,2013-02-05 08:45:00,
2013-02-05 19:50:00,73.9,61.4,30.03,ENE,77,0.0,3.0,65,0.00,CLR,,0.00,WeatherDisplay:10.37,2013-02-05 08:50:00,
2013-02-05 19:55:00,73.9,61.4,30.04,NE,39,2.0,6.0,65,0.00,CLR,,0.00,WeatherDisplay:10.37,2013-02-05 08:55:00,
2013-02-05 20:00:00,73.8,61.3,30.04,NNE,30,1.0,4.0,65,0.00,CLR,,0.00,WeatherDisplay:10.37,2013-02-05 09:00:00,
2013-02-05 20:05:00,73.6,61.5,30.04,ENE,77,0.0,2.0,66,0.00,CLR,,0.00,WeatherDisplay:10.37,2013-02-05 09:05:00,
2013-02-05 20:10:00,73.4,61.3,30.04,ENE,60,0.0,2.0,66,0.00,CLR,,0.00,WeatherDisplay:10.37,2013-02-05 09:10:00,
2013-02-05 20:15:00,73.2,61.6,30.04,ENE,70,0.0,1.0,67,0.00,CLR,,0.00,WeatherDisplay:10.37,2013-02-05 09:15:00,
2013-02-05 20:20:00,73.2,61.6,30.04,SE,124,0.0,2.0,67,0.00,CLR,,0.00,WeatherDisplay:10.37,2013-02-05 09:20:00,
2013-02-05 20:25:00,73.2,61.6,30.04,ESE,123,0.0,0.0,67,0.00,CLR,,0.00,WeatherDisplay:10.37,2013-02-05 09:25:00,
2013-02-05 20:30:00,73.0,61.4,30.04,SE,131,0.0,0.0,67,0.00,CLR,,0.00,WeatherDisplay:10.37,2013-02-05 09:30:00,
2013-02-05 20:35:00,73.0,61.4,30.04,East,82,0.0,0.0,67,0.00,CLR,,0.00,WeatherDisplay:10.37,2013-02-05 09:35:00,
2013-02-05 20:40:00,72.7,61.5,30.04,East,99,0.0,0.0,68,0.00,CLR,,0.00,WeatherDisplay:10.37,2013-02-05 09:40:00,
2013-02-05 20:45:00,72.7,61.5,30.05,ESE,121,0.0,0.0,68,0.00,CLR,,0.00,WeatherDisplay:10.37,2013-02-05 09:45:00,
2013-02-05 20:50:00,72.5,61.3,30.04,SE,127,0.0,0.0,68,0.00,CLR,,0.00,WeatherDisplay:10.37,2013-02-05 09:50:00,
2013-02-05 20:55:00,72.5,61.7,30.04,SSE,151,0.0,0.0,69,0.00,CLR,,0.00,WeatherDisplay:10.37,2013-02-05 09:55:00,
2013-02-05 21:00:00,72.5,61.7,30.04,SSE,159,0.0,0.0,69,0.00,CLR,,0.00,WeatherDisplay:10.37,2013-02-05 10:00:00,
2013-02-05 21:05:00,72.5,61.7,30.05,South,175,0.0,0.0,69,0.00,CLR,,0.00,WeatherDisplay:10.37,2013-02-05 10:05:00,
2013-02-05 21:10:00,72.4,61.7,30.05,SSW,195,0.0,0.0,69,0.00,CLR,,0.00,WeatherDisplay:10.37,2013-02-05 10:10:00,
2013-02-05 21:15:00,72.5,61.7,30.05,South,178,0.0,0.0,69,0.00,CLR,,0.00,WeatherDisplay:10.37,2013-02-05 10:15:00,
2013-02-05 21:20:00,72.5,61.7,30.05,SE,139,0.0,0.0,69,0.00,CLR,,0.00,WeatherDisplay:10.37,2013-02-05 10:20:00,
2013-02-05 21:25:00,72.5,61.7,30.06,ESE,120,0.0,0.0,69,0.00,CLR,,0.00,WeatherDisplay:10.37,2013-02-05 10:25:00,
2013-02-05 21:30:00,72.5,61.7,30.05,SE,125,0.0,0.0,69,0.00,CLR,,0.00,WeatherDisplay:10.37,2013-02-05 10:30:00,
2013-02-05 21:35:00,72.5,61.7,30.06,SE,128,0.0,0.0,69,0.00,CLR,,0.00,WeatherDisplay:10.37,2013-02-05 10:35:00,
2013-02-05 21:40:00,72.5,61.7,30.06,ESE,103,0.0,0.0,69,0.00,CLR,,0.00,WeatherDisplay:10.37,2013-02-05 10:40:00,
2013-02-05 21:45:00,72.5,61.7,30.06,ESE,102,0.0,0.0,69,0.00,CLR,,0.00,WeatherDisplay:10.37,2013-02-05 10:45:00,
2013-02-05 21:50:00,72.5,61.7,30.06,East,92,0.0,0.0,69,0.00,CLR,,0.00,WeatherDisplay:10.37,2013-02-05 10:50:00,
2013-02-05 21:55:00,72.6,61.8,30.06,ENE,78,0.0,0.0,69,0.00,CLR,,0.00,WeatherDisplay:10.37,2013-02-05 10:55:00,
2013-02-05 22:00:00,72.7,62.3,30.06,ESE,113,0.0,2.0,70,0.00,CLR,,0.00,WeatherDisplay:10.37,2013-02-05 11:00:00,
2013-02-05 22:05:00,72.6,62.3,30.06,SE,139,0.0,0.0,70,0.00,CLR,,0.00,WeatherDisplay:10.37,2013-02-05 11:05:00,
2013-02-05 22:10:00,72.7,62.3,30.06,SE,128,0.0,0.0,70,0.00,CLR,,0.00,WeatherDisplay:10.37,2013-02-05 11:10:00,
2013-02-05 22:15:00,72.7,62.3,30.05,SSE,149,0.0,0.0,70,0.00,CLR,,0.00,WeatherDisplay:10.37,2013-02-05 11:15:00,
2013-02-05 22:20:00,72.6,62.2,30.05,SSE,151,0.0,0.0,70,0.00,CLR,,0.00,WeatherDisplay:10.37,2013-02-05 11:20:00,
2013-02-05 22:25:00,72.5,62.2,30.05,SE,138,0.0,0.0,70,0.00,CLR,,0.00,WeatherDisplay:10.37,2013-02-05 11:25:00,
2013-02-05 22:30:00,72.5,62.2,30.05,SE,137,0.0,0.0,70,0.00,CLR,,0.00,WeatherDisplay:10.37,2013-02-05 11:30:00,
2013-02-05 22:35:00,72.4,62.0,30.05,SE,143,0.0,0.0,70,0.00,CLR,,0.00,WeatherDisplay:10.37,2013-02-05 11:35:00,
2013-02-05 22:40:00,72.3,62.0,30.04,SE,131,0.0,2.0,70,0.00,CLR,,0.00,WeatherDisplay:10.37,2013-02-05 11:40:00,
2013-02-05 22:45:00,72.3,62.0,30.05,SE,146,0.0,0.0,70,0.00,CLR,,0.00,WeatherDisplay:10.37,2013-02-05 11:45:00,
2013-02-05 22:50:00,72.2,61.8,30.04,SSE,162,0.0,0.0,70,0.00,CLR,,0.00,WeatherDisplay:10.37,2013-02-05 11:50:00,
2013-02-05 22:55:00,72.1,61.8,30.04,SE,145,0.0,0.0,70,0.00,CLR,,0.00,WeatherDisplay:10.37,2013-02-05 11:55:00,
2013-02-05 23:00:00,72.1,61.8,30.04,SE,145,0.0,0.0,70,0.00,CLR,,0.00,WeatherDisplay:10.37,2013-02-05 12:00:00,
2013-02-05 23:05:00,72.0,61.6,30.04,SSE,153,0.0,0.0,70,0.00,CLR,,0.00,WeatherDisplay:10.37,2013-02-05 12:05:00,
2013-02-05 23:10:00,71.8,61.5,30.04,SSW,197,0.0,0.0,70,0.00,CLR,,0.00,WeatherDisplay:10.37,2013-02-05 12:10:00,
2013-02-05 23:15:00,71.8,61.5,30.04,West,263,0.0,0.0,70,0.00,CLR,,0.00,WeatherDisplay:10.37,2013-02-05 12:15:00,
2013-02-05 23:20:00,71.4,61.5,30.04,SW,235,0.0,0.0,71,0.00,CLR,,0.00,WeatherDisplay:10.37,2013-02-05 12:20:00,
2013-02-05 23:25:00,71.4,61.5,30.04,SSW,208,0.0,0.0,71,0.00,CLR,,0.00,WeatherDisplay:10.37,2013-02-05 12:25:00,
2013-02-05 23:30:00,71.3,61.4,30.04,SSW,202,0.0,0.0,71,0.00,CLR,,0.00,WeatherDisplay:10.37,2013-02-05 12:30:00,
2013-02-05 23:35:00,71.2,61.3,30.03,SSW,202,0.0,0.0,71,0.00,CLR,,0.00,WeatherDisplay:10.37,2013-02-05 12:35:00,
2013-02-05 23:40:00,70.9,61.0,30.04,SSW,202,0.0,0.0,71,0.00,CLR,,0.00,WeatherDisplay:10.37,2013-02-05 12:40:00,
2013-02-05 23:45:00,70.7,60.8,30.04,SSW,202,0.0,0.0,71,0.00,CLR,,0.00,WeatherDisplay:10.37,2013-02-05 12:45:00,
2013-02-05 23:50:00,70.5,60.7,30.04,SSW,202,0.0,0.0,71,0.00,CLR,,0.00,WeatherDisplay:10.37,2013-02-05 12:50:00,
2013-02-05 23:55:00,70.3,60.9,30.03,SSW,202,0.0,0.0,72,0.00,CLR,,0.00,WeatherDisplay:10.37,2013-02-05 12:55:00,